sat.trackr.live / text

‹ back to catalog

RAVEN

NORAD 69016 · 2026-100AN

PAYLOAD ACTIVE UNKNOWN

§ Identity

Operator
Country
GER
Launch date
2026-05-03
Launch site
AFWTR
Launch vehicle
Mass (kg)
RCS (m²)

External: N2YO · Heavens-Above · Gunter

§ Orbital elements

Epoch: 2026-05-25T04:08:36.084768Z

Period
94.66 min
Inclination
97.4055°
Eccentricity
0.0009419
Mean motion
15.21213597 rev/d
Perigee alt
495.7 km
Apogee alt
508.7 km
Semi-major
6,880.3 km
B*
1.2790e-4
RAAN
43.4348°
Arg perigee
123.5792°
Mean anomaly
236.6345°
Rev number
331

§ Raw data

RAVEN1 69016U 26100AN  26145.17263987  .00002787  00000+0  12790-3 0  99972 69016  97.4055  43.4348 0009419 123.5792 236.6345 15.21213597  3314

JSON: /api/v1/satellites/69016 · /tle

For live sub-satellite position, see the globe view (requires WebGL).

§ Visibility from observer

Set your observer location to see the next 7 days of passes ≥ 10°. The values pass through the URL so the page stays shareable.

No JS? Fill the form by hand. The geolocation button needs JavaScript.